Regional Weather Roundup
Issued by NWS Albany, NY

Home | Current Version | Previous Version | Text Only | Print | Product List | Glossary On
Versions: 1 2 3 4 5 6 7 8 9 10 11 12 13 14 15 16 17 18 19 20 21 22 23 24 25 26 27
000
ASUS41 KALY 271610
RWRALY

NEW YORK STATE HOURLY WEATHER ROUNDUP
NATIONAL WEATHER SERVICE ALBANY NY
1200 PM EDT TUE SEP 27 2016

NOTE: "FAIR" INDICATES FEW OR NO CLOUDS BELOW 12,000 FEET WITH NO
SIGNIFICANT WEATHER AND/OR NO OBSTRUCTIONS TO VISIBILITY.

NYZ032-033-038>043-046>054-057>066-NYZ062>081-082-084-271700-
EAST


CITY           SKY/WX    TMP DP  RH WIND       PRES   REMARKS
ALBANY         MOSUNNY   68  56  65 SW5       29.92F
GLENS FALLS    CLOUDY    62  55  77 S7        29.91F
POUGHKEEPSIE   CLOUDY    66  58  75 CALM      29.93F
NEWBURGH       PTSUNNY   66  63  88 W7        29.95F
MONTGOMERY     MOSUNNY   68  58  70 CALM      29.93F
WHITE PLAINS   MOSUNNY   68  59  73 W5        29.93F
ISLIP          CLOUDY    70  61  73 W5        29.92F
NEW YORK CITY  PTSUNNY   72  60  66 NW6       29.92F
CENTRAL PARK   CLOUDY    69  60  73 CALM      29.96F
$$

NYZ005>009-017-018-044>046-055-056-271700-
CENTRAL


CITY           SKY/WX    TMP DP  RH WIND       PRES   REMARKS
FULTON         SUNNY     68  52  56 S6        29.87F
SYRACUSE       MOSUNNY   68  45  43 W8        29.87F
ROME           MOSUNNY   68  55  63 SE6       29.89F
ELMIRA         SUNNY     68  46  45 SW10      29.89F
BINGHAMTON     SUNNY     63  44  50 VRB5      29.92F
MONTICELLO     MOSUNNY   64  54  68 S5        29.96F
$$

NYZ026>034-041>043-087-271700-
NORTH


CITY           SKY/WX    TMP DP  RH WIND       PRES   REMARKS
WATERTOWN      PTSUNNY   64  51  62 SW8       29.86S
FORT DRUM      NOT AVBL
OGDENSBURG     PTSUNNY   65  54  66 SW5       29.84S
MASSENA        MOSUNNY   68  51  54 SW13      29.86S
SARANAC LAKE   PTSUNNY   62  44  51 S10       29.88S
PLATTSBURGH    MOSUNNY   66  57  72 SE13      29.86F
$$

NYZ001>004-010>016-019>021-085-271700-
WEST


CITY           SKY/WX    TMP DP  RH WIND       PRES   REMARKS
NIAGARA FALLS  PTSUNNY   69  46  43 SW20G30   29.81S
BUFFALO        MOSUNNY   66  41  40 SW17G30   29.83F
DUNKIRK        SUNNY     67  43  41 SW20G30   29.84F
JAMESTOWN      SUNNY     61  43  51 SW14G26   29.89S
WELLSVILLE       N/A     62  36  37 SW20G35   29.93F
ROCHESTER      MOSUNNY   68  45  43 SW14      29.84F
PENN YAN       SUNNY     69  37  30 S14G22    29.88F
$$

             KEY
       WCI = WIND CHILL INDEX
       VSB = VISIBILITY
       HX  = HEAT INDEX
$$




USA.gov is the U.S. government's official web portal to all federal, state and local government web resources and services.